Location: Firdgum
(53.2488°N, 5.5615°E)
Time: 17:58:12
(UTC+00:00)

Cosmos 1464 Rocket - Pass Details

Date: 08 December 2019
Orbit: 953 x 1001 km, 82.9° (Epoch: 20 January)

Event Time Altitude Azimuth Distance (km) Brightness Sun altitude
Rises 04:25:47 0° 193° (SSW) 3,653 6.9 -27.4°
Reaches altitude 10° 04:28:17 10° 194° (SSW) 2,704 6.2 -27.0°
Maximum altitude 04:34:29 79° 281° (WNW) 985 3.8 -26.1°
Drops below altitude 10° 04:40:40 10° 9° (N) 2,698 6.3 -25.2°
Sets 04:43:10 0° 11° (N) 3,646 7.1 -24.8°
